Location: L�Ave Maria
(50.7161°N, 1.5911°E)
Time: 13:20:32
(UTC+00:00)

Cosmos 304 Rocket - Pass Details

Date: 10 July 2020
Orbit: 679 x 688 km, 74.0° (Epoch: 06 August)

Event Time Altitude Azimuth Distance (km) Brightness Sun altitude
Rises 22:36:07 0° 337° (NNW) 3,071 9.1 -14.9°
Reaches altitude 10° 22:38:28 10° 341° (NNW) 2,150 7.7 -15.1°
Maximum altitude 22:43:16 60° 62° (ENE) 789 4.1 -15.3°
Enters shadow 22:46:13 23° 136° (SE) 1,463 4.9 -15.4°
